owner,sensor,date,latitude,longitude,vertical_datum,sea_water_practical_salinity,qcFlag 
SCCF RECON,ioos:station:SCCF:11:1,2017-02-01T00:00:00Z,26.4679,-82.0631,1.66,32.75,1111122 
SCCF RECON,ioos:station:SCCF:11:1,2017-02-01T01:00:00Z,26.4679,-82.0631,1.61,32.75,1111122 
SCCF RECON,ioos:station:SCCF:11:1,2017-02-01T02:00:00Z,26.4679,-82.0631,1.55,32.76,1111122 
SCCF RECON,ioos:station:SCCF:11:1,2017-02-01T03:00:00Z,26.4679,-82.0631,1.54,32.79,1111122 
SCCF RECON,ioos:station:SCCF:11:1,2017-02-01T04:00:00Z,26.4679,-82.0631,1.61,32.75,1111122 
SCCF RECON,ioos:station:SCCF:11:1,2017-02-01T05:00:00Z,26.4679,-82.0631,1.741,32.68,1111122 
SCCF RECON,ioos:station:SCCF:11:1,2017-02-01T06:00:00Z,26.4679,-82.0631,1.87,32.46,1111122 
SCCF RECON,ioos:station:SCCF:11:1,2017-02-01T07:00:00Z,26.4679,-82.0631,1.95,32.38,1111122 
SCCF RECON,ioos:station:SCCF:11:1,2017-02-01T08:00:00Z,26.4679,-82.0631,2.01,32.36,1111122 
SCCF RECON,ioos:station:SCCF:11:1,2017-02-01T09:00:00Z,26.4679,-82.0631,2.02,32.18,1111122 
SCCF RECON,ioos:station:SCCF:11:1,2017-02-01T10:00:00Z,26.4679,-82.0631,1.95,32.29,1111122 
SCCF RECON,ioos:station:SCCF:11:1,2017-02-01T11:00:00Z,26.4679,-82.0631,1.833,32.49,1111122 
SCCF RECON,ioos:station:SCCF:11:1,2017-02-01T12:00:00Z,26.4679,-82.0631,1.71,32.64,1111122 
SCCF RECON,ioos:station:SCCF:11:1,2017-02-01T13:00:00Z,26.4679,-82.0631,1.619,32.71,1111122 
SCCF RECON,ioos:station:SCCF:11:1,2017-02-01T14:00:00Z,26.4679,-82.0631,1.53,32.75,1111122 
SCCF RECON,ioos:station:SCCF:11:1,2017-02-01T15:00:00Z,26.4679,-82.0631,1.47,32.8,1111122 
SCCF RECON,ioos:station:SCCF:11:1,2017-02-01T16:00:00Z,26.4679,-82.0631,1.509,32.71,1111122 
SCCF RECON,ioos:station:SCCF:11:1,2017-02-01T17:00:00Z,26.4679,-82.0631,1.63,32.68,1111122 
SCCF RECON,ioos:station:SCCF:11:1,2017-02-01T18:00:00Z,26.4679,-82.0631,1.77,32.27,1111122 
SCCF RECON,ioos:station:SCCF:11:1,2017-02-01T19:00:00Z,26.4679,-82.0631,1.87,32.14,1111122 
SCCF RECON,ioos:station:SCCF:11:1,2017-02-01T20:00:00Z,26.4679,-82.0631,1.952,32.08,1111122 
SCCF RECON,ioos:station:SCCF:11:1,2017-02-01T21:00:00Z,26.4679,-82.0631,2.027,32.08,1111122 
SCCF RECON,ioos:station:SCCF:11:1,2017-02-01T22:00:00Z,26.4679,-82.0631,2.05,32.13,1111122 
SCCF RECON,ioos:station:SCCF:11:1,2017-02-01T23:00:00Z,26.4679,-82.0631,1.93,32.11,1111122 
SCCF RECON,ioos:station:SCCF:11:1,2017-02-02T00:00:00Z,26.4679,-82.0631,1.79,32.29,1111122 
SCCF RECON,ioos:station:SCCF:11:1,2017-02-02T01:00:00Z,26.4679,-82.0631,1.692,32.46,1111122 
SCCF RECON,ioos:station:SCCF:11:1,2017-02-02T02:00:00Z,26.4679,-82.0631,1.62,32.46,1111122 
SCCF RECON,ioos:station:SCCF:11:1,2017-02-02T03:00:00Z,26.4679,-82.0631,1.56,32.56,1111122 
SCCF RECON,ioos:station:SCCF:11:1,2017-02-02T04:00:00Z,26.4679,-82.0631,1.55,32.55,1111122 
SCCF RECON,ioos:station:SCCF:11:1,2017-02-02T05:00:00Z,26.4679,-82.0631,1.61,32.49,1111122 
SCCF RECON,ioos:station:SCCF:11:1,2017-02-02T06:00:00Z,26.4679,-82.0631,1.73,32.46,1111122 
SCCF RECON,ioos:station:SCCF:11:1,2017-02-02T07:00:00Z,26.4679,-82.0631,1.83,32.41,1111122 
SCCF RECON,ioos:station:SCCF:11:1,2017-02-02T08:00:00Z,26.4679,-82.0631,1.886,32.26,1111122 
SCCF RECON,ioos:station:SCCF:11:1,2017-02-02T09:00:00Z,26.4679,-82.0631,1.93,32.23,1111122 
SCCF RECON,ioos:station:SCCF:11:1,2017-02-02T10:00:00Z,26.4679,-82.0631,1.95,32.3,1111122 
SCCF RECON,ioos:station:SCCF:11:1,2017-02-02T11:00:00Z,26.4679,-82.0631,1.91,32.28,1111122 
SCCF RECON,ioos:station:SCCF:11:1,2017-02-02T12:00:00Z,26.4679,-82.0631,1.81,32.32,1111122 
SCCF RECON,ioos:station:SCCF:11:1,2017-02-02T13:00:00Z,26.4679,-82.0631,1.7,32.46,1111122 
SCCF RECON,ioos:station:SCCF:11:1,2017-02-02T14:00:00Z,26.4679,-82.0631,1.61,32.53,1111122 
SCCF RECON,ioos:station:SCCF:11:1,2017-02-02T15:00:00Z,26.4679,-82.0631,1.54,32.56,1111122 
SCCF RECON,ioos:station:SCCF:11:1,2017-02-02T16:00:00Z,26.4679,-82.0631,1.52,32.62,1111122 
SCCF RECON,ioos:station:SCCF:11:1,2017-02-02T17:00:00Z,26.4679,-82.0631,1.58,32.55,1111122 
SCCF RECON,ioos:station:SCCF:11:1,2017-02-02T18:00:00Z,26.4679,-82.0631,1.69,32.45,1111122 
SCCF RECON,ioos:station:SCCF:11:1,2017-02-02T19:00:00Z,26.4679,-82.0631,1.81,32.01,1111122 
SCCF RECON,ioos:station:SCCF:11:1,2017-02-02T20:00:00Z,26.4679,-82.0631,1.9,31.83,1111122 
SCCF RECON,ioos:station:SCCF:11:1,2017-02-02T21:00:00Z,26.4679,-82.0631,1.98,32.04,1111122 
SCCF RECON,ioos:station:SCCF:11:1,2017-02-02T22:00:00Z,26.4679,-82.0631,2.02,32.06,1111122 
SCCF RECON,ioos:station:SCCF:11:1,2017-02-02T23:00:00Z,26.4679,-82.0631,2.017,32.01,1111122 
SCCF RECON,ioos:station:SCCF:11:1,2017-02-03T00:00:00Z,26.4679,-82.0631,1.901,32.03,1111122 
SCCF RECON,ioos:station:SCCF:11:1,2017-02-03T01:00:00Z,26.4679,-82.0631,1.78,32.18,1111122 
SCCF RECON,ioos:station:SCCF:11:1,2017-02-03T02:00:00Z,26.4679,-82.0631,1.67,32.3,1111122 
SCCF RECON,ioos:station:SCCF:11:1,2017-02-03T03:00:00Z,26.4679,-82.0631,1.58,32.3,1111122 
SCCF RECON,ioos:station:SCCF:11:1,2017-02-03T04:00:00Z,26.4679,-82.0631,1.506,32.47,1111122 
SCCF RECON,ioos:station:SCCF:11:1,2017-02-03T05:00:00Z,26.4679,-82.0631,1.48,32.51,1111122 
SCCF RECON,ioos:station:SCCF:11:1,2017-02-03T06:00:00Z,26.4679,-82.0631,1.53,32.47,1111122 
SCCF RECON,ioos:station:SCCF:11:1,2017-02-03T07:00:00Z,26.4679,-82.0631,1.62,32.41,1111122 
SCCF RECON,ioos:station:SCCF:11:1,2017-02-03T08:00:00Z,26.4679,-82.0631,1.71,32.35,1111122 
SCCF RECON,ioos:station:SCCF:11:1,2017-02-03T09:00:00Z,26.4679,-82.0631,1.78,32.31,1111122 
SCCF RECON,ioos:station:SCCF:11:1,2017-02-03T10:00:00Z,26.4679,-82.0631,1.85,32.3,1111122 
SCCF RECON,ioos:station:SCCF:11:1,2017-02-03T11:00:00Z,26.4679,-82.0631,1.882,32.27,1111122 
SCCF RECON,ioos:station:SCCF:11:1,2017-02-03T12:00:00Z,26.4679,-82.0631,1.869,32.29,1111122 
SCCF RECON,ioos:station:SCCF:11:1,2017-02-03T13:00:00Z,26.4679,-82.0631,1.79,32.3,1111122 
SCCF RECON,ioos:station:SCCF:11:1,2017-02-03T14:00:00Z,26.4679,-82.0631,1.7,32.35,1111122 
SCCF RECON,ioos:station:SCCF:11:1,2017-02-03T15:00:00Z,26.4679,-82.0631,1.64,32.46,1111122 
SCCF RECON,ioos:station:SCCF:11:1,2017-02-03T16:00:00Z,26.4679,-82.0631,1.601,32.49,1111122 
SCCF RECON,ioos:station:SCCF:11:1,2017-02-03T17:00:00Z,26.4679,-82.0631,1.617,32.47,1111122 
SCCF RECON,ioos:station:SCCF:11:1,2017-02-03T18:00:00Z,26.4679,-82.0631,1.68,32.49,1111122 
SCCF RECON,ioos:station:SCCF:11:1,2017-02-03T19:00:00Z,26.4679,-82.0631,1.79,32.29,1111122 
SCCF RECON,ioos:station:SCCF:11:1,2017-02-03T20:00:00Z,26.4679,-82.0631,1.893,31.72,1111122 
SCCF RECON,ioos:station:SCCF:11:1,2017-02-03T21:00:00Z,26.4679,-82.0631,1.97,31.66,1111122 
SCCF RECON,ioos:station:SCCF:11:1,2017-02-03T22:00:00Z,26.4679,-82.0631,2.03,31.68,1111122 
SCCF RECON,ioos:station:SCCF:11:1,2017-02-03T23:00:00Z,26.4679,-82.0631,2.05,31.75,1111122 
SCCF RECON,ioos:station:SCCF:11:1,2017-02-04T00:00:00Z,26.4679,-82.0631,2.0,32.0,1111122 
SCCF RECON,ioos:station:SCCF:11:1,2017-02-04T01:00:00Z,26.4679,-82.0631,1.89,31.95,1111122 
SCCF RECON,ioos:station:SCCF:11:1,2017-02-04T02:00:00Z,26.4679,-82.0631,1.77,32.19,1111122 
SCCF RECON,ioos:station:SCCF:11:1,2017-02-04T03:00:00Z,26.4679,-82.0631,1.66,32.15,1111122 
SCCF RECON,ioos:station:SCCF:11:1,2017-02-04T04:00:00Z,26.4679,-82.0631,1.56,32.37,1111122 
SCCF RECON,ioos:station:SCCF:11:1,2017-02-04T05:00:00Z,26.4679,-82.0631,1.47,32.45,1111122 
SCCF RECON,ioos:station:SCCF:11:1,2017-02-04T06:00:00Z,26.4679,-82.0631,1.42,32.48,1111122 
SCCF RECON,ioos:station:SCCF:11:1,2017-02-04T07:00:00Z,26.4679,-82.0631,1.41,32.51,1111122 
SCCF RECON,ioos:station:SCCF:11:1,2017-02-04T08:00:00Z,26.4679,-82.0631,1.49,32.45,1111122 
SCCF RECON,ioos:station:SCCF:11:1,2017-02-04T09:00:00Z,26.4679,-82.0631,1.583,32.41,1111122 
SCCF RECON,ioos:station:SCCF:11:1,2017-02-04T10:00:00Z,26.4679,-82.0631,1.67,32.39,1111122 
SCCF RECON,ioos:station:SCCF:11:1,2017-02-04T11:00:00Z,26.4679,-82.0631,1.74,32.37,1111122 
SCCF RECON,ioos:station:SCCF:11:1,2017-02-04T12:00:00Z,26.4679,-82.0631,1.78,32.36,1111122 
SCCF RECON,ioos:station:SCCF:11:1,2017-02-04T13:00:00Z,26.4679,-82.0631,1.756,32.41,1111122 
SCCF RECON,ioos:station:SCCF:11:1,2017-02-04T14:00:00Z,26.4679,-82.0631,1.7,32.38,1111122 
SCCF RECON,ioos:station:SCCF:11:1,2017-02-04T15:00:00Z,26.4679,-82.0631,1.622,32.45,1111122 
SCCF RECON,ioos:station:SCCF:11:1,2017-02-04T16:00:00Z,26.4679,-82.0631,1.6,32.51,1111122 
SCCF RECON,ioos:station:SCCF:11:1,2017-02-04T17:00:00Z,26.4679,-82.0631,1.59,32.46,1111122 
SCCF RECON,ioos:station:SCCF:11:1,2017-02-04T18:00:00Z,26.4679,-82.0631,1.6,32.48,1111122 
SCCF RECON,ioos:station:SCCF:11:1,2017-02-04T19:00:00Z,26.4679,-82.0631,1.66,32.43,1111122 
SCCF RECON,ioos:station:SCCF:11:1,2017-02-04T20:00:00Z,26.4679,-82.0631,1.74,31.92,1111122 
SCCF RECON,ioos:station:SCCF:11:1,2017-02-04T21:00:00Z,26.4679,-82.0631,1.85,31.67,1111122 
SCCF RECON,ioos:station:SCCF:11:1,2017-02-04T22:00:00Z,26.4679,-82.0631,1.94,31.45,1111122 
SCCF RECON,ioos:station:SCCF:11:1,2017-02-04T23:00:00Z,26.4679,-82.0631,2.009,31.45,1111122 
SCCF RECON,ioos:station:SCCF:11:1,2017-02-05T00:00:00Z,26.4679,-82.0631,2.03,31.52,1111122 
SCCF RECON,ioos:station:SCCF:11:1,2017-02-05T01:00:00Z,26.4679,-82.0631,2.0,31.79,1111122 
SCCF RECON,ioos:station:SCCF:11:1,2017-02-05T02:00:00Z,26.4679,-82.0631,1.91,31.78,1111122 
SCCF RECON,ioos:station:SCCF:11:1,2017-02-05T03:00:00Z,26.4679,-82.0631,1.81,32.08,1111122 
SCCF RECON,ioos:station:SCCF:11:1,2017-02-05T04:00:00Z,26.4679,-82.0631,1.7,32.17,1111122 
SCCF RECON,ioos:station:SCCF:11:1,2017-02-05T05:00:00Z,26.4679,-82.0631,1.58,32.22,1111122 
SCCF RECON,ioos:station:SCCF:11:1,2017-02-05T06:00:00Z,26.4679,-82.0631,1.48,32.34,1111122 
SCCF RECON,ioos:station:SCCF:11:1,2017-02-05T07:00:00Z,26.4679,-82.0631,1.4,32.44,1111122 
SCCF RECON,ioos:station:SCCF:11:1,2017-02-05T08:00:00Z,26.4679,-82.0631,1.36,32.5,1111122 
SCCF RECON,ioos:station:SCCF:11:1,2017-02-05T09:00:00Z,26.4679,-82.0631,1.425,32.51,1111122 
SCCF RECON,ioos:station:SCCF:11:1,2017-02-05T10:00:00Z,26.4679,-82.0631,1.56,32.35,1111122 
SCCF RECON,ioos:station:SCCF:11:1,2017-02-05T11:00:00Z,26.4679,-82.0631,1.69,32.4,1111122 
SCCF RECON,ioos:station:SCCF:11:1,2017-02-05T12:00:00Z,26.4679,-82.0631,1.77,32.24,1111122 
SCCF RECON,ioos:station:SCCF:11:1,2017-02-05T13:00:00Z,26.4679,-82.0631,1.84,32.15,1111122 
SCCF RECON,ioos:station:SCCF:11:1,2017-02-05T14:00:00Z,26.4679,-82.0631,1.87,32.25,1111122 
SCCF RECON,ioos:station:SCCF:11:1,2017-02-05T15:00:00Z,26.4679,-82.0631,1.86,32.09,1111122 
SCCF RECON,ioos:station:SCCF:11:1,2017-02-05T16:00:00Z,26.4679,-82.0631,1.839,32.12,1111122 
SCCF RECON,ioos:station:SCCF:11:1,2017-02-05T17:00:00Z,26.4679,-82.0631,1.79,32.28,1111122 
SCCF RECON,ioos:station:SCCF:11:1,2017-02-05T18:00:00Z,26.4679,-82.0631,1.76,32.37,1111122 
SCCF RECON,ioos:station:SCCF:11:1,2017-02-05T19:00:00Z,26.4679,-82.0631,1.723,32.35,1111122 
SCCF RECON,ioos:station:SCCF:11:1,2017-02-05T20:00:00Z,26.4679,-82.0631,1.74,32.43,1111122 
SCCF RECON,ioos:station:SCCF:11:1,2017-02-05T21:00:00Z,26.4679,-82.0631,1.8,32.28,1111122 
SCCF RECON,ioos:station:SCCF:11:1,2017-02-05T22:00:00Z,26.4679,-82.0631,1.896,32.29,1111122 
SCCF RECON,ioos:station:SCCF:11:1,2017-02-05T23:00:00Z,26.4679,-82.0631,2.0,32.31,1111122 
SCCF RECON,ioos:station:SCCF:11:1,2017-02-06T00:00:00Z,26.4679,-82.0631,2.03,32.29,1111122 
SCCF RECON,ioos:station:SCCF:11:1,2017-02-06T01:00:00Z,26.4679,-82.0631,2.05,32.42,1111122 
SCCF RECON,ioos:station:SCCF:11:1,2017-02-06T02:00:00Z,26.4679,-82.0631,2.0,32.36,1111122 
SCCF RECON,ioos:station:SCCF:11:1,2017-02-06T03:00:00Z,26.4679,-82.0631,1.892,32.33,1111122 
SCCF RECON,ioos:station:SCCF:11:1,2017-02-06T04:00:00Z,26.4679,-82.0631,1.766,32.38,1111122 
SCCF RECON,ioos:station:SCCF:11:1,2017-02-06T05:00:00Z,26.4679,-82.0631,1.65,32.41,1111122 
SCCF RECON,ioos:station:SCCF:11:1,2017-02-06T06:00:00Z,26.4679,-82.0631,1.53,32.52,1111122 
SCCF RECON,ioos:station:SCCF:11:1,2017-02-06T07:00:00Z,26.4679,-82.0631,1.4,32.52,1111122 
SCCF RECON,ioos:station:SCCF:11:1,2017-02-06T08:00:00Z,26.4679,-82.0631,1.283,32.6,1111122 
SCCF RECON,ioos:station:SCCF:11:1,2017-02-06T09:00:00Z,26.4679,-82.0631,1.25,32.67,1111122 
SCCF RECON,ioos:station:SCCF:11:1,2017-02-06T10:00:00Z,26.4679,-82.0631,1.311,32.58,1111122 
SCCF RECON,ioos:station:SCCF:11:1,2017-02-06T11:00:00Z,26.4679,-82.0631,1.46,32.52,1111122 
SCCF RECON,ioos:station:SCCF:11:1,2017-02-06T12:00:00Z,26.4679,-82.0631,1.59,32.54,1111122 
SCCF RECON,ioos:station:SCCF:11:1,2017-02-06T13:00:00Z,26.4679,-82.0631,1.7,32.45,1111122 
SCCF RECON,ioos:station:SCCF:11:1,2017-02-06T14:00:00Z,26.4679,-82.0631,1.793,32.46,1111122 
SCCF RECON,ioos:station:SCCF:11:1,2017-02-06T15:00:00Z,26.4679,-82.0631,1.856,32.09,1111122 
SCCF RECON,ioos:station:SCCF:11:1,2017-02-06T16:00:00Z,26.4679,-82.0631,1.879,32.26,1111122 
SCCF RECON,ioos:station:SCCF:11:1,2017-02-06T17:00:00Z,26.4679,-82.0631,1.87,32.27,1111122 
SCCF RECON,ioos:station:SCCF:11:1,2017-02-06T18:00:00Z,26.4679,-82.0631,1.85,32.27,1111122 
SCCF RECON,ioos:station:SCCF:11:1,2017-02-06T19:00:00Z,26.4679,-82.0631,1.784,32.28,1111122 
SCCF RECON,ioos:station:SCCF:11:1,2017-02-06T20:00:00Z,26.4679,-82.0631,1.74,32.33,1111122 
SCCF RECON,ioos:station:SCCF:11:1,2017-02-06T21:00:00Z,26.4679,-82.0631,1.79,32.27,1111122 
SCCF RECON,ioos:station:SCCF:11:1,2017-02-06T22:00:00Z,26.4679,-82.0631,1.9,32.29,1111122 
SCCF RECON,ioos:station:SCCF:11:1,2017-02-06T23:00:00Z,26.4679,-82.0631,2.001,32.25,1111122 
SCCF RECON,ioos:station:SCCF:11:1,2017-02-07T00:00:00Z,26.4679,-82.0631,2.07,32.18,1111122 
SCCF RECON,ioos:station:SCCF:11:1,2017-02-07T01:00:00Z,26.4679,-82.0631,2.111,32.45,1111122 
SCCF RECON,ioos:station:SCCF:11:1,2017-02-07T02:00:00Z,26.4679,-82.0631,2.14,32.63,1111122 
SCCF RECON,ioos:station:SCCF:11:1,2017-02-07T03:00:00Z,26.4679,-82.0631,2.111,32.76,1111122 
SCCF RECON,ioos:station:SCCF:11:1,2017-02-07T04:00:00Z,26.4679,-82.0631,2.021,32.24,1111122 
SCCF RECON,ioos:station:SCCF:11:1,2017-02-07T05:00:00Z,26.4679,-82.0631,1.9,32.2,1111122 
SCCF RECON,ioos:station:SCCF:11:1,2017-02-07T06:00:00Z,26.4679,-82.0631,1.75,32.42,1111122 
SCCF RECON,ioos:station:SCCF:11:1,2017-02-07T07:00:00Z,26.4679,-82.0631,1.6,32.51,1111122 
SCCF RECON,ioos:station:SCCF:11:1,2017-02-07T08:00:00Z,26.4679,-82.0631,1.45,32.57,1111122 
SCCF RECON,ioos:station:SCCF:11:1,2017-02-07T09:00:00Z,26.4679,-82.0631,1.33,32.64,1111122 
SCCF RECON,ioos:station:SCCF:11:1,2017-02-07T10:00:00Z,26.4679,-82.0631,1.28,32.67,1111122 
SCCF RECON,ioos:station:SCCF:11:1,2017-02-07T11:00:00Z,26.4679,-82.0631,1.36,32.61,1111122 
SCCF RECON,ioos:station:SCCF:11:1,2017-02-07T12:00:00Z,26.4679,-82.0631,1.51,32.58,1111122 
SCCF RECON,ioos:station:SCCF:11:1,2017-02-07T13:00:00Z,26.4679,-82.0631,1.643,32.54,1111122 
SCCF RECON,ioos:station:SCCF:11:1,2017-02-07T14:00:00Z,26.4679,-82.0631,1.758,32.49,1111122 
SCCF RECON,ioos:station:SCCF:11:1,2017-02-07T15:00:00Z,26.4679,-82.0631,1.84,32.51,1111122 
SCCF RECON,ioos:station:SCCF:11:1,2017-02-07T16:00:00Z,26.4679,-82.0631,1.891,32.54,1111122 
SCCF RECON,ioos:station:SCCF:11:1,2017-02-07T17:00:00Z,26.4679,-82.0631,1.888,32.84,1111122 
SCCF RECON,ioos:station:SCCF:11:1,2017-02-07T18:00:00Z,26.4679,-82.0631,1.84,32.76,1111122 
SCCF RECON,ioos:station:SCCF:11:1,2017-02-07T19:00:00Z,26.4679,-82.0631,1.769,32.58,1111122 
SCCF RECON,ioos:station:SCCF:11:1,2017-02-07T20:00:00Z,26.4679,-82.0631,1.702,32.56,1111122 
SCCF RECON,ioos:station:SCCF:11:1,2017-02-07T21:00:00Z,26.4679,-82.0631,1.66,32.58,1111122 
SCCF RECON,ioos:station:SCCF:11:1,2017-02-07T22:00:00Z,26.4679,-82.0631,1.685,32.77,1111122 
SCCF RECON,ioos:station:SCCF:11:1,2017-02-07T23:00:00Z,26.4679,-82.0631,1.794,33.72,1111122 
SCCF RECON,ioos:station:SCCF:11:1,2017-02-08T00:00:00Z,26.4679,-82.0631,1.909,33.79,1111122 
SCCF RECON,ioos:station:SCCF:11:1,2017-02-08T01:00:00Z,26.4679,-82.0631,1.981,33.91,1111122 
SCCF RECON,ioos:station:SCCF:11:1,2017-02-08T02:00:00Z,26.4679,-82.0631,2.05,34.04,1111122 
SCCF RECON,ioos:station:SCCF:11:1,2017-02-08T03:00:00Z,26.4679,-82.0631,2.14,34.1,1111122 
SCCF RECON,ioos:station:SCCF:11:1,2017-02-08T04:00:00Z,26.4679,-82.0631,2.16,34.08,1111122 
SCCF RECON,ioos:station:SCCF:11:1,2017-02-08T05:00:00Z,26.4679,-82.0631,2.08,33.66,1111122 
SCCF RECON,ioos:station:SCCF:11:1,2017-02-08T06:00:00Z,26.4679,-82.0631,1.9,33.22,1111122 
SCCF RECON,ioos:station:SCCF:11:1,2017-02-08T07:00:00Z,26.4679,-82.0631,1.759,33.09,1111122 
SCCF RECON,ioos:station:SCCF:11:1,2017-02-08T08:00:00Z,26.4679,-82.0631,1.64,33.07,1111122 
SCCF RECON,ioos:station:SCCF:11:1,2017-02-08T09:00:00Z,26.4679,-82.0631,1.52,33.08,1111122 
SCCF RECON,ioos:station:SCCF:11:1,2017-02-08T10:00:00Z,26.4679,-82.0631,1.38,33.04,1111122 
SCCF RECON,ioos:station:SCCF:11:1,2017-02-08T11:00:00Z,26.4679,-82.0631,1.32,32.97,1111122 
SCCF RECON,ioos:station:SCCF:11:1,2017-02-08T12:00:00Z,26.4679,-82.0631,1.35,33.01,1111122 
SCCF RECON,ioos:station:SCCF:11:1,2017-02-08T13:00:00Z,26.4679,-82.0631,1.55,33.15,1111122 
SCCF RECON,ioos:station:SCCF:11:1,2017-02-08T14:00:00Z,26.4679,-82.0631,1.78,33.46,1111122 
SCCF RECON,ioos:station:SCCF:11:1,2017-02-08T15:00:00Z,26.4679,-82.0631,1.919,33.48,1111122 
SCCF RECON,ioos:station:SCCF:11:1,2017-02-08T16:00:00Z,26.4679,-82.0631,2.0,33.58,1111122 
SCCF RECON,ioos:station:SCCF:11:1,2017-02-08T17:00:00Z,26.4679,-82.0631,1.992,33.77,1111122 
SCCF RECON,ioos:station:SCCF:11:1,2017-02-08T18:00:00Z,26.4679,-82.0631,1.96,33.68,1111122 
SCCF RECON,ioos:station:SCCF:11:1,2017-02-08T19:00:00Z,26.4679,-82.0631,1.897,33.33,1111122 
SCCF RECON,ioos:station:SCCF:11:1,2017-02-08T20:00:00Z,26.4679,-82.0631,1.834,33.18,1111122 
SCCF RECON,ioos:station:SCCF:11:1,2017-02-08T21:00:00Z,26.4679,-82.0631,1.768,33.15,1111122 
SCCF RECON,ioos:station:SCCF:11:1,2017-02-08T22:00:00Z,26.4679,-82.0631,1.7,33.08,1111122 
SCCF RECON,ioos:station:SCCF:11:1,2017-02-08T23:00:00Z,26.4679,-82.0631,1.7,33.08,1111122 
SCCF RECON,ioos:station:SCCF:11:1,2017-02-09T00:00:00Z,26.4679,-82.0631,1.79,33.19,1111122 
SCCF RECON,ioos:station:SCCF:11:1,2017-02-09T01:00:00Z,26.4679,-82.0631,1.944,34.07,1111122 
SCCF RECON,ioos:station:SCCF:11:1,2017-02-09T02:00:00Z,26.4679,-82.0631,2.05,34.0,1111122 
SCCF RECON,ioos:station:SCCF:11:1,2017-02-09T03:00:00Z,26.4679,-82.0631,2.13,33.99,1111122 
SCCF RECON,ioos:station:SCCF:11:1,2017-02-09T04:00:00Z,26.4679,-82.0631,2.18,34.08,1111122 
SCCF RECON,ioos:station:SCCF:11:1,2017-02-09T05:00:00Z,26.4679,-82.0631,2.15,34.1,1111122 
SCCF RECON,ioos:station:SCCF:11:1,2017-02-09T06:00:00Z,26.4679,-82.0631,2.04,33.28,1111122 
SCCF RECON,ioos:station:SCCF:11:1,2017-02-09T07:00:00Z,26.4679,-82.0631,1.861,33.35,1111122 
SCCF RECON,ioos:station:SCCF:11:1,2017-02-09T08:00:00Z,26.4679,-82.0631,1.697,33.31,1111122 
SCCF RECON,ioos:station:SCCF:11:1,2017-02-09T09:00:00Z,26.4679,-82.0631,1.55,33.25,1111122 
SCCF RECON,ioos:station:SCCF:11:1,2017-02-09T10:00:00Z,26.4679,-82.0631,1.395,33.25,1111122 
SCCF RECON,ioos:station:SCCF:11:1,2017-02-09T11:00:00Z,26.4679,-82.0631,1.28,33.21,1111122 
SCCF RECON,ioos:station:SCCF:11:1,2017-02-09T12:00:00Z,26.4679,-82.0631,1.27,33.19,1111122 
SCCF RECON,ioos:station:SCCF:11:1,2017-02-09T13:00:00Z,26.4679,-82.0631,1.4,33.34,1111122 
SCCF RECON,ioos:station:SCCF:11:1,2017-02-09T14:00:00Z,26.4679,-82.0631,1.57,33.3,1111122 
SCCF RECON,ioos:station:SCCF:11:1,2017-02-09T15:00:00Z,26.4679,-82.0631,1.715,33.31,1111122 
SCCF RECON,ioos:station:SCCF:11:1,2017-02-09T16:00:00Z,26.4679,-82.0631,1.831,33.32,1111122 
SCCF RECON,ioos:station:SCCF:11:1,2017-02-09T17:00:00Z,26.4679,-82.0631,1.938,33.41,1111122 
SCCF RECON,ioos:station:SCCF:11:1,2017-02-09T18:00:00Z,26.4679,-82.0631,1.985,33.41,1111122 
SCCF RECON,ioos:station:SCCF:11:1,2017-02-09T19:00:00Z,26.4679,-82.0631,1.915,33.39,1111122 
SCCF RECON,ioos:station:SCCF:11:1,2017-02-09T20:00:00Z,26.4679,-82.0631,1.799,33.26,1111122 
SCCF RECON,ioos:station:SCCF:11:1,2017-02-09T21:00:00Z,26.4679,-82.0631,1.735,33.2,1111122 
SCCF RECON,ioos:station:SCCF:11:1,2017-02-09T22:00:00Z,26.4679,-82.0631,1.675,33.18,1111122 
SCCF RECON,ioos:station:SCCF:11:1,2017-02-09T23:00:00Z,26.4679,-82.0631,1.622,33.2,1111122 
SCCF RECON,ioos:station:SCCF:11:1,2017-02-10T00:00:00Z,26.4679,-82.0631,1.62,33.13,1111122 
SCCF RECON,ioos:station:SCCF:11:1,2017-02-10T01:00:00Z,26.4679,-82.0631,1.71,33.12,1111122 
SCCF RECON,ioos:station:SCCF:11:1,2017-02-10T02:00:00Z,26.4679,-82.0631,1.872,33.2,1111122 
SCCF RECON,ioos:station:SCCF:11:1,2017-02-10T03:00:00Z,26.4679,-82.0631,2.019,33.2,1111122 
SCCF RECON,ioos:station:SCCF:11:1,2017-02-10T04:00:00Z,26.4679,-82.0631,2.137,33.18,1111122 
SCCF RECON,ioos:station:SCCF:11:1,2017-02-10T05:00:00Z,26.4679,-82.0631,2.13,33.21,1111122 
SCCF RECON,ioos:station:SCCF:11:1,2017-02-10T06:00:00Z,26.4679,-82.0631,2.067,33.16,1111122 
SCCF RECON,ioos:station:SCCF:11:1,2017-02-10T07:00:00Z,26.4679,-82.0631,1.886,33.14,1111122 
SCCF RECON,ioos:station:SCCF:11:1,2017-02-10T08:00:00Z,26.4679,-82.0631,1.715,33.2,1111122 
SCCF RECON,ioos:station:SCCF:11:1,2017-02-10T09:00:00Z,26.4679,-82.0631,1.576,33.19,1111122 
SCCF RECON,ioos:station:SCCF:11:1,2017-02-10T10:00:00Z,26.4679,-82.0631,1.415,33.22,1111122 
SCCF RECON,ioos:station:SCCF:11:1,2017-02-10T11:00:00Z,26.4679,-82.0631,1.268,33.26,1111122 
SCCF RECON,ioos:station:SCCF:11:1,2017-02-10T12:00:00Z,26.4679,-82.0631,1.161,33.28,1111122 
SCCF RECON,ioos:station:SCCF:11:1,2017-02-10T13:00:00Z,26.4679,-82.0631,1.1,33.29,1111122 
SCCF RECON,ioos:station:SCCF:11:1,2017-02-10T14:00:00Z,26.4679,-82.0631,1.21,33.23,1111122 
SCCF RECON,ioos:station:SCCF:11:1,2017-02-10T15:00:00Z,26.4679,-82.0631,1.41,33.27,1111122 
SCCF RECON,ioos:station:SCCF:11:1,2017-02-10T16:00:00Z,26.4679,-82.0631,1.58,33.01,1111122 
SCCF RECON,ioos:station:SCCF:11:1,2017-02-10T17:00:00Z,26.4679,-82.0631,1.69,32.74,1111122 
SCCF RECON,ioos:station:SCCF:11:1,2017-02-10T18:00:00Z,26.4679,-82.0631,1.78,32.86,1111122 
SCCF RECON,ioos:station:SCCF:11:1,2017-02-10T19:00:00Z,26.4679,-82.0631,1.833,32.82,1111122 
SCCF RECON,ioos:station:SCCF:11:1,2017-02-10T20:00:00Z,26.4679,-82.0631,1.8,32.81,1111122 
SCCF RECON,ioos:station:SCCF:11:1,2017-02-10T21:00:00Z,26.4679,-82.0631,1.7,32.68,1111122 
SCCF RECON,ioos:station:SCCF:11:1,2017-02-10T22:00:00Z,26.4679,-82.0631,1.64,32.78,1111122 
SCCF RECON,ioos:station:SCCF:11:1,2017-02-10T23:00:00Z,26.4679,-82.0631,1.636,32.79,1111122 
SCCF RECON,ioos:station:SCCF:11:1,2017-02-11T00:00:00Z,26.4679,-82.0631,1.61,32.75,1111122 
SCCF RECON,ioos:station:SCCF:11:1,2017-02-11T01:00:00Z,26.4679,-82.0631,1.67,32.81,1111122 
SCCF RECON,ioos:station:SCCF:11:1,2017-02-11T02:00:00Z,26.4679,-82.0631,1.81,32.74,1111122 
SCCF RECON,ioos:station:SCCF:11:1,2017-02-11T03:00:00Z,26.4679,-82.0631,1.94,32.66,1111122 
SCCF RECON,ioos:station:SCCF:11:1,2017-02-11T04:00:00Z,26.4679,-82.0631,2.03,32.77,1111122 
SCCF RECON,ioos:station:SCCF:11:1,2017-02-11T05:00:00Z,26.4679,-82.0631,2.1,32.79,1111122 
SCCF RECON,ioos:station:SCCF:11:1,2017-02-11T06:00:00Z,26.4679,-82.0631,2.121,32.74,1111122 
SCCF RECON,ioos:station:SCCF:11:1,2017-02-11T07:00:00Z,26.4679,-82.0631,2.04,32.76,1111122 
SCCF RECON,ioos:station:SCCF:11:1,2017-02-11T08:00:00Z,26.4679,-82.0631,1.875,32.74,1111122 
SCCF RECON,ioos:station:SCCF:11:1,2017-02-11T09:00:00Z,26.4679,-82.0631,1.71,32.82,1111122 
SCCF RECON,ioos:station:SCCF:11:1,2017-02-11T10:00:00Z,26.4679,-82.0631,1.58,32.88,1111122 
SCCF RECON,ioos:station:SCCF:11:1,2017-02-11T11:00:00Z,26.4679,-82.0631,1.461,32.96,1111122 
SCCF RECON,ioos:station:SCCF:11:1,2017-02-11T12:00:00Z,26.4679,-82.0631,1.36,33.01,1111122 
SCCF RECON,ioos:station:SCCF:11:1,2017-02-11T13:00:00Z,26.4679,-82.0631,1.32,33.06,1111122 
SCCF RECON,ioos:station:SCCF:11:1,2017-02-11T14:00:00Z,26.4679,-82.0631,1.41,32.96,1111122 
SCCF RECON,ioos:station:SCCF:11:1,2017-02-11T15:00:00Z,26.4679,-82.0631,1.599,32.54,1111122 
SCCF RECON,ioos:station:SCCF:11:1,2017-02-11T16:00:00Z,26.4679,-82.0631,1.74,32.54,1111122 
SCCF RECON,ioos:station:SCCF:11:1,2017-02-11T17:00:00Z,26.4679,-82.0631,1.85,32.61,1111122 
SCCF RECON,ioos:station:SCCF:11:1,2017-02-11T18:00:00Z,26.4679,-82.0631,1.93,32.66,1111122 